Regional Weather Roundup
Issued by NWS

Home | Current Version | Previous Version | Graphics & Text | Print | Product List | Glossary On
Versions: 1 2 3 4 5 6 7 8 9 10 11 12 13 14 15 16 17 18 19 20 21 22 23 24 25 26 27 28 29 30 31 32 33 34 35 36 37 38 39 40 41 42 43 44 45 46 47 48 49 50
236
ASUS43 KDMX 220006
RWRIA

WEATHER ROUNDUP FOR IOWA
NATIONAL WEATHER SERVICE DES MOINES IA
600 PM CST WED FEB 21 2018

NOTE: "FAIR" INDICATES FEW OR NO CLOUDS BELOW 12,000 FEET WITH NO
SIGNIFICANT WEATHER AND/OR OBSTRUCTIONS TO VISIBILITY.

* - THESE STATIONS ARE NOT NWS STATIONS...THUS NOT UNDER NWS
QUALITY CONTROL.  THEY ALSO DO NOT REPORT WEATHER SUCH
AS PRECIPITATION OR FOG.

IAZ001>003-012>014-020>022-031>034-043>046-220100-
   NORTHWEST IOWA

CITY           SKY/WX    TMP DP  RH WIND       PRES   REMARKS
CARROLL *      FAIR      21  12  68 E7        30.60S WCI  13
CHEROKEE *     FAIR      21  13  69 SE6       30.59R WCI  14
DENISON *      FAIR      21  14  73 NE8       30.60R WCI  12
LE MARS *      FAIR      19  10  68 E5        30.58S WCI  13
ORANGE CITY *  FAIR      18  10  73 CALM      30.56S
SHELDON *      FAIR      16   7  67 E5        30.55S WCI   9
SIOUX CITY     FAIR      19   7  59 E3        30.58S
6HR MIN TEMP:  14; 6HR MAX TEMP:  22;

SPENCER        MIX PCPN  19  10  68 NE3       30.58S
6HR MIN TEMP:  15; 6HR MAX TEMP:  22; 6HR PCP:  0.04;

STORM LAKE *   FAIR      19  12  73 SE10      30.57R WCI   8
$$

IAZ055>058-069>071-079>083-090>094-220100-
   SOUTHWEST IOWA

CITY           SKY/WX    TMP DP  RH WIND       PRES   REMARKS
ATLANTIC *     FAIR      23  14  68 E9        30.58R WCI  13
AUDUBON *      FAIR      21  14  73 CALM      30.58S
CLARINDA *     MOCLDY    27  21  80 NE8       30.58S WCI  18
COUNCIL BLFS * CLOUDY    23  18  80 NE9       30.56S WCI  13
CRESTON *      MOCLDY    25  18  74 NE13      30.56R WCI  13
HARLAN  *      FAIR      21  14  73 E9        30.61S WCI  11
LAMONI         FAIR      25  20  81 NE13      30.55R WCI  14
6HR MIN TEMP:  20; 6HR MAX TEMP:  27;

RED OAK *      CLOUDY    25  18  74 NE9       30.57S WCI  15
SHENANDOAH *   CLOUDY    27  19  74 NE10      30.57S WCI  17
$$

IAZ047>049-059>061-072>074-084-220100-
   CENTRAL IOWA

CITY           SKY/WX    TMP DP  RH WIND       PRES   REMARKS
AMES           FAIR      22  14  71 NE8       30.62R WCI  12
6HR MIN TEMP:  19; 6HR MAX TEMP:  24;

ANKENY *       FAIR      23  16  74 NE8       30.63R WCI  14
BOONE *        FAIR      21  16  79 MISG      30.61R
CHARITON *     FAIR      25  21  86 NE10      30.57S WCI  15
DES MOINES     CLOUDY    25  15  66 NE8       30.60S WCI  16
6HR MIN TEMP:  21; 6HR MAX TEMP:  27;

GRINNELL*      FAIR      25  18  76 N8        30.62R WCI  16
KNOXVILLE *    FAIR      25  18  74 NE10      30.58S WCI  15
MARSHALLTOWN   FAIR      22  15  75 NE9       30.61S WCI  12
6HR MIN TEMP:  19; 6HR MAX TEMP:  24;

NEWTON *       FAIR      23  16  74 NE9       30.61R WCI  13
PELLA *        FAIR      26  19  75 NE7       30.62R WCI  18
PERRY *        FAIR      22  14  72 NE8       30.62R WCI  13
$$

IAZ004>006-015-016-023>025-035-036-220100-
   NORTH CENTRAL IOWA

CITY           SKY/WX    TMP DP  RH WIND       PRES   REMARKS
ALGONA *       FAIR      21 N/A N/A E5        30.60F WCI  15
CLARION *      CLOUDY    21  14  73 NE7       30.61S WCI  13
ESTHERVILLE    MOCLDY    16   7  67 N3        30.59R
6HR MIN TEMP:  13; 6HR MAX TEMP:  18;

FORT DODGE *   CLOUDY    18  10  71 NE5       30.61S WCI  11
MASON CITY     MOCLDY    21  11  65 CALM      30.62S
6HR MIN TEMP:  17; 6HR MAX TEMP:  22;

FOREST CITY *  FAIR      21  14  73 CALM      30.62R
WEBSTER CITY * CLOUDY    19  10  68 NE6       30.60S WCI  11
IOWA FALLS *   FAIR      22  15  74 NE3       30.62S
$$

IAZ007>011-017>019-026>030-037>042-050>054-066-220100-
   NORTHEAST IOWA

CITY           SKY/WX    TMP DP  RH WIND       PRES   REMARKS
CEDAR RAPIDS   FAIR      26  15  63 NE7       30.61R WCI  18
6HR MIN TEMP:  22; 6HR MAX TEMP:  28;

CHARLES CITY * MOCLDY    21  12  68 CALM      30.63S
CLINTON *      FAIR      26  19  74 NE8       30.64R WCI  18
DECORAH *      FAIR      23  12  63 CALM      30.62R
DUBUQUE        FAIR      24  12  60 N7        30.62R WCI  16
6HR MIN TEMP:  20; 6HR MAX TEMP:  26;

MONTICELLO *   FAIR      25  14  63 N7        30.63R WCI  17
OELWEIN *      FAIR      23  16  74 N8        30.63R WCI  14
WATERLOO       FAIR      22  13  68 N7        30.63R WCI  13
6HR MIN TEMP:  19; 6HR MAX TEMP:  25;

$$

IAZ064-065-067-068-078-220100-
   EAST CENTRAL IOWA

CITY           SKY/WX    TMP DP  RH WIND       PRES   REMARKS
DAVENPORT      FAIR      27  17  66 NE7       30.65R WCI  19
6HR MIN TEMP:  25; 6HR MAX TEMP:  30;

IOWA CITY      FAIR      28  14  55 NE10      30.65R WCI  19
6HR MIN TEMP:  24; 6HR MAX TEMP:  31;

MT. PLEASANT * FAIR      28  19  69 N15       30.60S WCI  17
MUSCATINE *    FAIR      28  18  64 NE12      30.64R WCI  18
QUAD CITIES    FAIR      28  19  69 N7        30.63R WCI  21
6HR MIN TEMP:  27; 6HR MAX TEMP:  31;

$$

IAZ062-063-075>077-085>089-095>099-220100-
   SOUTHEAST IOWA

CITY           SKY/WX    TMP DP  RH WIND       PRES   REMARKS
BURLINGTON     FAIR      28  18  66 NE15      30.59R WCI  16
6HR MIN TEMP:  26; 6HR MAX TEMP:  31;

FAIRFIELD *    FAIR      27  16  63 N13       30.60R WCI  16
FORT MADISON * FAIR      28  19  69 NE10      30.59R WCI  19
KEOKUK *       FAIR      28  19  69 NE6G12    30.58S WCI  22
OSKALOOSA *    FAIR      26  19  74 NE9       30.62R WCI  16
OTTUMWA        FAIR      26  15  63 NE12      30.60R WCI  16
6HR MIN TEMP:  22; 6HR MAX TEMP:  28;

WASHINGTON *   FAIR      27  19  74 NE12      30.62R WCI  16
$$

ABBREVIATIONS USED IN REMARKS
   TC - TEMPERATURES IN CELSIUS
  WCI - WIND CHILL INDEX
   HX - HEAT INDEX
  VSB - VISIBILITY
$$





USA.gov is the U.S. government's official web portal to all federal, state and local government web resources and services.